Location: Unspecified
(34.4950°S, 58.5160°W)
Time: 14:45:40
(UTC+00:00)

Cosmos 1655 Rocket - Pass Details

Date: 07 July 2022
Orbit: 971 x 1005 km, 83.0° (Epoch: 11 August)

Event Time Altitude Azimuth Distance (km) Brightness Sun altitude
Rises 22:34:36 0° 358° (N) 3,713 7.3 -19.5°
Reaches altitude 10° 22:37:06 10° 358° (N) 2,773 6.6 -20.0°
Maximum altitude 22:43:30 85° 85° (E) 1,022 4.0 -21.3°
Drops below altitude 10° 22:49:59 10° 173° (S) 2,806 6.2 -22.6°
Sets 22:52:32 0° 173° (S) 3,761 6.9 -23.1°
